Hourly Weather Kistarcsa

Today, 25 October, Sunday

Time Temperature Precipitation Wind Pressure Humidity
00:00 +13°C° 0 mm 1 mps 743 mmHg 86%
01:00 +13°C° 0 mm 1 mps 743 mmHg 85%
02:00 +13°C° 0.1 mm 1 mps 742 mmHg 86%
03:00 +13°C° 0.1 mm 2 mps 742 mmHg 88%
04:00 +13°C° 0.1 mm 2 mps 741 mmHg 89%
05:00 +13°C° 0.3 mm 2 mps 741 mmHg 90%
06:00 +13°C° 0.3 mm 2 mps 741 mmHg 91%
07:00 +13°C° 0.3 mm 2 mps 741 mmHg 92%
08:00 +13°C° 0.7 mm 2 mps 741 mmHg 92%
09:00 +13°C° 0.7 mm 2 mps 741 mmHg 93%
10:00 +13°C° 0.7 mm 2 mps 741 mmHg 93%
11:00 +13°C° 0.5 mm 1 mps 741 mmHg 93%
12:00 +13°C° 0.5 mm 1 mps 741 mmHg 93%
13:00 +13°C° 0.5 mm 1 mps 741 mmHg 93%
14:00 +13°C° 0.1 mm 1 mps 741 mmHg 93%
15:00 +13°C° 0.1 mm 1 mps 740 mmHg 93%
16:00 +13°C° 0.1 mm 1 mps 740 mmHg 94%
17:00 +13°C° 0 mm 1 mps 740 mmHg 94%
18:00 +13°C° 0 mm 1 mps 740 mmHg 95%
19:00 +13°C° 0 mm 1 mps 741 mmHg 95%
20:00 +13°C° 0 mm 1 mps 741 mmHg 96%
21:00 +13°C° 0 mm 1 mps 740 mmHg 96%
22:00 +13°C° 0 mm 1 mps 740 mmHg 96%
23:00 +13°C° 0.1 mm 1 mps 740 mmHg 96%

Tomorrow, 26 October, Monday

Time Temperature Precipitation Wind Pressure Humidity
00:00 +13°C° 0.1 mm 2 mps 740 mmHg 97%
01:00 +13°C° 0.1 mm 2 mps 740 mmHg 97%
02:00 +13°C° 0 mm 2 mps 740 mmHg 96%
03:00 +13°C° 0 mm 2 mps 739 mmHg 96%
04:00 +12°C° 0 mm 3 mps 739 mmHg 96%
05:00 +11°C° 0 mm 3 mps 739 mmHg 96%
06:00 +11°C° 0 mm 3 mps 739 mmHg 95%
07:00 +11°C° 0 mm 3 mps 739 mmHg 95%
08:00 +12°C° 0 mm 4 mps 739 mmHg 90%
09:00 +13°C° 0 mm 4 mps 739 mmHg 85%
10:00 +14°C° 0 mm 4 mps 739 mmHg 80%
11:00 +15°C° 0 mm 5 mps 739 mmHg 74%
12:00 +16°C° 0 mm 5 mps 739 mmHg 68%
13:00 +17°C° 0 mm 5 mps 739 mmHg 61%
14:00 +17°C° 0 mm 5 mps 739 mmHg 63%
15:00 +17°C° 0 mm 4 mps 738 mmHg 65%
16:00 +17°C° 0 mm 4 mps 738 mmHg 67%
17:00 +15°C° 0 mm 4 mps 738 mmHg 69%
18:00 +15°C° 0 mm 4 mps 739 mmHg 71%
19:00 +14°C° 0 mm 4 mps 739 mmHg 73%
20:00 +14°C° 0 mm 3 mps 739 mmHg 76%
21:00 +13°C° 0 mm 3 mps 739 mmHg 78%
22:00 +13°C° 0 mm 3 mps 739 mmHg 80%
23:00 +13°C° 0 mm 2 mps 739 mmHg 81%

Day after tomorrow, 27 October, Tuesday

Time Temperature Precipitation Wind Pressure Humidity
00:00 +13°C° 0 mm 2 mps 739 mmHg 82%
01:00 +13°C° 0 mm 2 mps 739 mmHg 82%
02:00 +12°C° 0 mm 2 mps 739 mmHg 84%
03:00 +12°C° 0 mm 2 mps 739 mmHg 85%
04:00 +12°C° 0 mm 2 mps 739 mmHg 86%
05:00 +12°C° 0 mm 2 mps 739 mmHg 87%
06:00 +10°C° 0 mm 2 mps 739 mmHg 89%
07:00 +10°C° 0 mm 2 mps 739 mmHg 90%
08:00 +13°C° 0 mm 2 mps 740 mmHg 84%
09:00 +14°C° 0 mm 2 mps 740 mmHg 79%
10:00 +14°C° 0 mm 3 mps 740 mmHg 73%
11:00 +16°C° 0 mm 3 mps 740 mmHg 70%
12:00 +17°C° 0 mm 3 mps 739 mmHg 66%
13:00 +18°C° 0 mm 3 mps 739 mmHg 63%
14:00 +18°C° 0 mm 2 mps 739 mmHg 65%
15:00 +17°C° 0 mm 2 mps 739 mmHg 68%
16:00 +17°C° 0 mm 2 mps 739 mmHg 70%
17:00 +16°C° 0 mm 1 mps 739 mmHg 73%
18:00 +15°C° 0 mm 1 mps 740 mmHg 76%
19:00 +14°C° 0 mm 1 mps 740 mmHg 79%
20:00 +14°C° 0 mm 1 mps 740 mmHg 81%
21:00 +14°C° 0 mm 1 mps 741 mmHg 82%
22:00 +13°C° 0 mm 1 mps 741 mmHg 83%
23:00 +13°C° 0 mm 1 mps 741 mmHg 84%

28 October, Wednesday

Time Temperature Precipitation Wind Pressure Humidity
00:00 +13°C° 0 mm 1 mps 741 mmHg 85%
01:00 +13°C° 0 mm 1 mps 741 mmHg 87%
02:00 +12°C° 0 mm 1 mps 741 mmHg 87%
03:00 +12°C° 0 mm 1 mps 741 mmHg 88%
04:00 +12°C° 0 mm 1 mps 741 mmHg 88%
05:00 +12°C° 0 mm 1 mps 741 mmHg 88%
06:00 +12°C° 0 mm 1 mps 741 mmHg 88%
07:00 +12°C° 0 mm 1 mps 742 mmHg 88%
08:00 +13°C° 0 mm 1 mps 742 mmHg 83%
09:00 +14°C° 0 mm 1 mps 742 mmHg 77%
10:00 +15°C° 0 mm 1 mps 742 mmHg 72%
11:00 +16°C° 0 mm 1 mps 742 mmHg 68%
12:00 +18°C° 0 mm 1 mps 742 mmHg 65%
13:00 +19°C° 0 mm 1 mps 742 mmHg 61%
14:00 +18°C° 0 mm 1 mps 742 mmHg 63%
15:00 +16°C° 0 mm 0 mps 742 mmHg 66%
16:00 +15°C° 0 mm 0 mps 742 mmHg 68%
17:00 +15°C° 0 mm 0 mps 742 mmHg 71%
18:00 +14°C° 0 mm 0 mps 742 mmHg 73%
19:00 +13°C° 0 mm 0 mps 743 mmHg 76%
20:00 +13°C° 0 mm 0 mps 743 mmHg 78%
21:00 +13°C° 0 mm 0 mps 743 mmHg 80%
22:00 +12°C° 0 mm 0 mps 743 mmHg 82%
23:00 +12°C° 0 mm 0 mps 743 mmHg 83%

29 October, Thursday

Time Temperature Precipitation Wind Pressure Humidity
00:00 +12°C° 0 mm 0 mps 743 mmHg 84%
01:00 +11°C° 0 mm 0 mps 743 mmHg 85%
02:00 +11°C° 0 mm 0 mps 743 mmHg 85%
03:00 +11°C° 0 mm 0 mps 743 mmHg 86%
04:00 +11°C° 0 mm 0 mps 743 mmHg 87%
05:00 +11°C° 0 mm 0 mps 744 mmHg 87%
06:00 +11°C° 0 mm 0 mps 744 mmHg 87%
07:00 +11°C° 0 mm 0 mps 744 mmHg 87%
08:00 +12°C° 0 mm 0 mps 744 mmHg 82%
09:00 +13°C° 0 mm 0 mps 745 mmHg 76%
10:00 +16°C° 0 mm 1 mps 745 mmHg 71%
11:00 +16°C° 0 mm 1 mps 745 mmHg 68%
12:00 +18°C° 0 mm 1 mps 745 mmHg 64%
13:00 +18°C° 0 mm 2 mps 746 mmHg 61%
14:00 +17°C° 0 mm 2 mps 746 mmHg 64%
15:00 +16°C° 0 mm 2 mps 746 mmHg 67%
16:00 +16°C° 0 mm 2 mps 746 mmHg 70%
17:00 +15°C° 0 mm 2 mps 746 mmHg 72%
18:00 +14°C° 0 mm 2 mps 747 mmHg 74%
19:00 +13°C° 0 mm 2 mps 747 mmHg 76%
20:00 +13°C° 0 mm 2 mps 747 mmHg 75%
21:00 +13°C° 0 mm 2 mps 748 mmHg 75%
22:00 +12°C° 0 mm 2 mps 748 mmHg 74%
23:00 +12°C° 0 mm 2 mps 748 mmHg 75%

30 October, Friday

Time Temperature Precipitation Wind Pressure Humidity
00:00 +12°C° 0 mm 2 mps 748 mmHg 75%
01:00 +12°C° 0 mm 2 mps 748 mmHg 76%
02:00 +10°C° 0 mm 2 mps 749 mmHg 76%
03:00 +10°C° 0 mm 2 mps 749 mmHg 77%
04:00 +10°C° 0 mm 2 mps 749 mmHg 77%
05:00 +10°C° 0 mm 2 mps 749 mmHg 77%
06:00 +11°C° 0 mm 1 mps 749 mmHg 76%
07:00 +11°C° 0 mm 1 mps 750 mmHg 76%
08:00 +12°C° 0 mm 1 mps 750 mmHg 71%
09:00 +14°C° 0 mm 1 mps 750 mmHg 66%
10:00 +15°C° 0 mm 2 mps 750 mmHg 61%
11:00 +16°C° 0 mm 2 mps 750 mmHg 58%
12:00 +17°C° 0 mm 2 mps 750 mmHg 54%
13:00 +18°C° 0 mm 2 mps 750 mmHg 51%
14:00 +17°C° 0 mm 2 mps 750 mmHg 54%
15:00 +18°C° 0 mm 1 mps 750 mmHg 57%
16:00 +16°C° 0 mm 1 mps 750 mmHg 60%
17:00 +15°C° 0 mm 1 mps 750 mmHg 62%
18:00 +14°C° 0 mm 1 mps 750 mmHg 64%
19:00 +14°C° 0 mm 1 mps 750 mmHg 67%
20:00 +13°C° 0 mm 1 mps 750 mmHg 68%
21:00 +13°C° 0 mm 1 mps 750 mmHg 68%
22:00 +13°C° 0 mm 1 mps 750 mmHg 69%
23:00 +12°C° 0 mm 1 mps 749 mmHg 70%
Show more